Back to catalog

STARLINK-3861

AliveCommunicationsVLEO
NORAD 52503·PAYLOAD·🇺🇸 United States

Launched May 6, 2022 from Cape Canaveral Space Force Station

Loading…

Next Passes (next 24 hours)

TLE

FreshSource: CelesTrak SupGP

Epoch: Sep 14, 2026, 21:32 UTC

1 52503C 22049BE  26257.89770833  .00045023  00000+0  12884-2 0  2574
2 52503  53.1584 261.8325 0001149  91.4688  29.0906 15.35371439    19

Track STARLINK-3861 in real time with AllMySat

Download on the App Store